Weather History for Ponca City, OK

Change the Weather History Date:

Wednesday, January 29, 2014

  Actual Average Record
Temperature  
Mean Temperature 33 °F -  
Max Temperature 50 °F 50 °F 75 °F (2011)
Min Temperature 16 °F 24 °F 0 °F (1951)
Degree Days  
Heating Degree Days 32    
Moisture  
Dew Point 6 °F    
Average Humidity 39    
Maximum Humidity 68    
Minimum Humidity 12    
Precipitation  
Precipitation 0.00 in - - ()
Sea Level Pressure  
Sea Level Pressure 30.18 in    
Wind  
Wind Speed 7 mph (South)    
Max Wind Speed 17 mph    
Max Gust Speed 28 mph    
Visibility 10 miles    
Events      
Averages and records for this station are not official NWS values.
T = Trace of Precipitation, MM = Missing Value Source: NWS Daily Summary

Daily Weather History Graph

Daily Weather History Graph

Search for Another Location

Airport:

Trip Planner

Search our weather history database for the weather conditions in past years. The results will help you decide how hot, cold, wet, or windy it might be!

Date:

Astronomy

Jan. 29, 2014 Rise Set
Actual Time 7:32 AM CST 5:50 PM CST
Civil Twilight 7:05 AM CST 6:18 PM CST
Nautical Twilight 6:34 AM CST 6:49 PM CST
Astronomical Twilight 6:03 AM CST 7:19 PM CST
Moon 6:10 AM CST (1/29) 4:51 PM CST (1/29)
Length of Visible Light 11h 13m
Length of Day
10h 18m
Waning Crescent, 2% of the Moon is Illuminated
Jan 29
Waning Crescent
Jan 30
New
Feb 6
First Quarter
Feb 14
Full
Feb 22
Last Quarter

Hourly Weather History & Observations

Time (CST) Temp. Windchill Dew Point Humidity Pressure Visibility Wind Dir Wind Speed Gust Speed Precip Events Conditions
12:53 AM 19.9 °F 14.9 °F 8.1 °F 60% 30.37 in 10.0 mi South 3.5 mph - N/A   Clear
1:53 AM 18.0 °F - 7.0 °F 62% 30.36 in 10.0 mi Calm Calm - N/A   Clear
2:53 AM 18.0 °F 11.1 °F 8.1 °F 65% 30.35 in 10.0 mi SSW 4.6 mph - N/A   Clear
3:53 AM 16.0 °F 10.4 °F 7.0 °F 68% 30.32 in 10.0 mi South 3.5 mph - N/A   Clear
4:53 AM 17.1 °F 10.0 °F 6.1 °F 62% 30.32 in 10.0 mi South 4.6 mph - N/A   Clear
5:53 AM 17.1 °F 8.7 °F 6.1 °F 62% 30.30 in 10.0 mi South 5.8 mph - N/A   Clear
6:53 AM 17.1 °F 8.7 °F 7.0 °F 65% 30.30 in 10.0 mi South 5.8 mph - N/A   Clear
7:53 AM 18.0 °F 8.7 °F 8.1 °F 65% 30.30 in 10.0 mi South 6.9 mph - N/A   Clear
8:53 AM 23.0 °F 14.7 °F 10.0 °F 58% 30.29 in 10.0 mi South 6.9 mph - N/A   Clear
9:53 AM 28.0 °F 20.8 °F 12.0 °F 51% 30.29 in 10.0 mi South 6.9 mph - N/A   Clear
10:53 AM 36.0 °F 30.3 °F 10.9 °F 36% 30.28 in 10.0 mi South 6.9 mph 17.3 mph N/A   Clear
11:53 AM 43.0 °F 37.2 °F 9.0 °F 25% 30.25 in 10.0 mi South 10.4 mph 16.1 mph N/A   Clear
12:53 PM 46.9 °F - 5.0 °F 18% 30.19 in 10.0 mi SSW 12.7 mph 25.3 mph N/A   Clear
1:53 PM 48.9 °F - 1.9 °F 15% 30.14 in 10.0 mi SSW 17.3 mph 26.5 mph N/A   Clear
2:53 PM 50.0 °F - 3.0 °F 15% 30.11 in 10.0 mi SSW 17.3 mph 25.3 mph N/A   Clear
3:53 PM 50.0 °F - -2.0 °F 12% 30.08 in 10.0 mi SSW 13.8 mph 27.6 mph N/A   Clear
4:53 PM 48.0 °F - -2.0 °F 13% 30.06 in 10.0 mi SSW 15.0 mph 27.6 mph N/A   Clear
5:53 PM 44.1 °F 40.1 °F -0.0 °F 16% 30.06 in 10.0 mi South 6.9 mph - N/A   Clear
6:53 PM 39.9 °F 35.8 °F 1.0 °F 20% 30.06 in 10.0 mi South 5.8 mph - N/A   Clear
7:53 PM 37.9 °F 31.5 °F 1.9 °F 22% 30.03 in 10.0 mi South 9.2 mph - N/A   Clear
8:53 PM 37.0 °F 31.0 °F 3.9 °F 25% 30.02 in 10.0 mi South 8.1 mph - N/A   Clear
9:53 PM 36.0 °F 27.5 °F 7.0 °F 30% 30.01 in 10.0 mi South 12.7 mph 19.6 mph N/A   Clear
10:53 PM 35.1 °F 27.4 °F 9.0 °F 34% 29.98 in 10.0 mi South 10.4 mph 18.4 mph N/A   Clear
11:53 PM 35.1 °F 25.5 °F 10.9 °F 37% 29.94 in 10.0 mi South 15.0 mph 24.2 mph N/A   Clear